O3B FM16 (43232 NORAD) Tracking and Keplerian Element Data.

This shows tracking and keplerian element data for the satellite.

Feedback or suggestion? Click here.

NameO3B FM16
Epoch Orbit42
Epoch Day77.02322733
Epoch Year2018
Argument of Perigee200.3534
Mean Anonmoly221.9139
Mean Motion5.12855734
Decay Rate-1.9E-07
L11 43232U 18024B 18077.02322733 -.00000019 00000-0 00000-0 0 9995
L22 43232 0.0327 297.8133 0010934 200.3534 221.9139 5.12855734 428

Live tracking and technical data element details for O3B FM16 (NORAD 43232). O3B FM16 can be tracked NOW for your location showing map with azimuth and elevation plus other details from your city location.

Tracking and technical details about the satellite: track the satellite on the map from your city or location and see movement details for azimuth, elevation, latitude, longitude, range, height, and movement on the map or in text.

Es'hailsat 2 (coming in 2018)

IsCatalogInMostPopularTable: catalog: 43232, numindb: 2
Update: records affected: 1

GetName: 43232 O3B FM16

Hit Count: updated at: Thu, 22 Mar 2018 13:50:00 GMT